{"data":{"norad_id":66365,"intl_designator":"2025-254T","name":"STARLINK-35827","alt_names":[],"object_type":"PAYLOAD","status":"ACTIVE","operator":null,"country":"US","launch_date":"2025-11-06","launch_site_code":"AFWTR","launch_vehicle":null,"mission":null,"orbit_class":"UNKNOWN","rcs_meters":null,"size_class":null,"mass_kg":null,"dimensions":null,"purposes":["comms"],"wikipedia_slug":null,"has_3d_model":false,"image_url":null,"decayed_at":null,"tle_current":{"epoch":"2026-09-20T14:07:51.898368Z","epoch_age_seconds":85789,"freshness":"FRESH","line1":"1 66365U 25254T   26263.58879512  .00018461  00000+0  60495-3 0  9994","line2":"2 66365  53.1610  45.8861 0001271  86.9795 273.1352 15.31712219 48839","mean_motion":15.31712219,"eccentricity":0.0001271,"inclination_deg":53.161,"raan_deg":45.8861,"arg_perigee_deg":86.9795,"mean_anomaly_deg":273.1352,"bstar":0.00060495,"rev_number":4883,"period_min":94.012437985258,"perigee_km":469.83308362801,"apogee_km":471.57405890122,"semimajor_km":6848.8405712646,"source":"CELESTRAK","updated_at":"2026-09-21T09:00:35.882574Z"}}}